Weather History for Alexandria, LA

Change the Weather History Date:

Tuesday, January 8, 2002

  Actual Average Record
Temperature  
Mean Temperature 44 °F 49 °F  
Max Temperature 60 °F 59 °F 79 °F (1907)
Min Temperature 27 °F 39 °F 17 °F (1942)
Degree Days  
Heating Degree Days 22 16  
Month to date heating degree days 128  
Since 1 July heating degree days 917  
Moisture  
Dew Point 31 °F    
Average Humidity 68    
Maximum Humidity 96    
Minimum Humidity 39    
Precipitation  
Precipitation 0.00 in 0.15 in 2.90 in (1961)
Month to date precipitation 1.19  
Year to date precipitation 1.19  
Snow  
Snow 0.00 in - T in (1971)
Month to date snowfall  
Since 1 July snowfall  
Snow Depth -    
Sea Level Pressure  
Sea Level Pressure 30.26 in    
Wind  
Wind Speed 4 mph (South)    
Max Wind Speed 12 mph    
Max Gust Speed -    
Visibility 10 miles    
Events      
T = Trace of Precipitation, MM = Missing Value Source: NWS Daily Summary

Daily Weather History Graph

Daily Weather History Graph

Search for Another Location

Airport:

Trip Planner

Search our weather history database for the weather conditions in past years. The results will help you decide how hot, cold, wet, or windy it might be!

Date:

Astronomy

Jan. 08, 2002 Rise Set
Actual Time 7:10 AM CST 5:24 PM CST
Civil Twilight 6:43 AM CST 5:50 PM CST
Nautical Twilight 6:13 AM CST 6:20 PM CST
Astronomical Twilight 5:44 AM CST 6:49 PM CST
Moon 2:29 AM CST (1/8) 1:40 PM CST (1/8)
Length of Visible Light 11h 06m
Length of Day
10h 13m
Waning Crescent, 23% of the Moon is Illuminated
Jan 8
Waning Crescent
Jan 13
New
Jan 21
First Quarter
Jan 28
Full
Feb 4
Last Quarter

Hourly Weather History & Observations

Time (CST) Temp. Windchill Dew Point Humidity Pressure Visibility Wind Dir Wind Speed Gust Speed Precip Events Conditions
12:53 AM 28.0 °F - 27.0 °F 96% 30.35 in 10.0 mi Calm Calm - N/A   Clear
1:53 AM 28.0 °F - 27.0 °F 96% 30.35 in 10.0 mi Calm Calm - N/A   Clear
2:53 AM 27.0 °F - 26.1 °F 96% 30.34 in 10.0 mi Calm Calm - N/A   Clear
3:53 AM 28.0 °F 24.2 °F 26.1 °F 92% 30.32 in 10.0 mi ESE 3.5 mph - N/A   Clear
4:53 AM 27.0 °F 23.0 °F 26.1 °F 96% 30.31 in 10.0 mi SE 3.5 mph - N/A   Clear
5:53 AM 27.0 °F 21.6 °F 25.0 °F 92% 30.32 in 10.0 mi SE 4.6 mph - N/A   Clear
6:53 AM 28.9 °F 25.2 °F 26.1 °F 89% 30.34 in 10.0 mi SE 3.5 mph - N/A   Clear
7:53 AM 28.9 °F 23.9 °F 27.0 °F 92% 30.33 in 10.0 mi SSE 4.6 mph - N/A   Clear
8:53 AM 34.0 °F 28.8 °F 30.0 °F 85% 30.34 in 10.0 mi SSE 5.8 mph - N/A   Clear
9:53 AM 42.1 °F 36.6 °F 30.9 °F 65% 30.34 in 10.0 mi South 9.2 mph - N/A   Clear
10:53 AM 48.0 °F - 30.9 °F 52% 30.32 in 10.0 mi SSW 11.5 mph - N/A   Clear
11:53 AM 52.0 °F - 30.9 °F 45% 30.29 in 10.0 mi SSW 9.2 mph - N/A   Clear
12:53 PM 55.9 °F - 33.1 °F 42% 30.22 in 10.0 mi SSE 9.2 mph - N/A   Clear
1:53 PM 57.9 °F - 34.0 °F 41% 30.19 in 10.0 mi SW 8.1 mph - N/A   Clear
2:53 PM 59.0 °F - 34.0 °F 39% 30.20 in 10.0 mi SSW 9.2 mph - N/A   Clear
3:53 PM 60.1 °F - 35.1 °F 39% 30.19 in 10.0 mi SSW 9.2 mph - N/A   Clear
4:53 PM 57.0 °F - 35.1 °F 44% 30.19 in 10.0 mi South 8.1 mph - N/A   Clear
5:53 PM 54.0 °F - 35.1 °F 49% 30.19 in 10.0 mi South 6.9 mph - N/A   Clear
6:53 PM 52.0 °F - 35.1 °F 53% 30.19 in 10.0 mi South 8.1 mph - N/A   Clear
7:53 PM 50.0 °F - 34.0 °F 54% 30.18 in 10.0 mi South 9.2 mph - N/A   Clear
8:53 PM 48.9 °F - 34.0 °F 56% 30.18 in 10.0 mi South 8.1 mph - N/A   Clear
9:53 PM 48.0 °F - 34.0 °F 58% 30.19 in 10.0 mi South 6.9 mph - N/A   Clear
10:53 PM 48.0 °F - 41.0 °F 77% 30.19 in 10.0 mi South 6.9 mph - N/A   Clear
11:53 PM 41.0 °F 38.0 °F 37.9 °F 89% 30.18 in 10.0 mi SSE 4.6 mph - N/A   Clear